Tracking 27122 objects as of 26-Mar-2023
HD Live streaming from Space Station
objects crossing your sky now

STARLINK-4041

Track STARLINK-4041 now!
10-day predictions
STARLINK-4041 is classified as:


NORAD ID: 52695
Int'l Code: 2022-053AR
Perigee: 546.2 km
Apogee: 547.9 km
Inclination: 53.2 °
Period: 95.4 minutes
Semi major axis: 6918 km
RCS: Unknown
Launch date: May 18, 2022
Source: United States (US)
Launch site: AIR FORCE EASTERN TEST RANGE (AFETR)
Your satellite tracking list
Your tracking list is empty




NASA's NSSDC Master Catalog

Two Line Element Set (TLE):
1 52695U 22053AR  23084.92980267  .00005712  00000-0  37720-3 0  9996
2 52695  53.2149 316.3536 0001193  92.5955 267.5173 15.08790649 48089
Source of the keplerian elements: AFSPC